Location: Chillicothe
(39.7950°N, 93.5520°W)
Time: 13:56:29
(UTC-06:00)

Vanguard 3 - Pass Details

Date: 26 October 2019
Orbit: 508 x 3263 km, 33.4° (Epoch: 18 November)

Event Time Altitude Azimuth Distance (km) Brightness Sun altitude
Rises 21:29:04 0° 224° (SW) 4,607 11.3 -36.8°
Reaches altitude 10° 21:33:30 10° 211° (SSW) 3,108 10.2 -37.6°
Enters shadow 21:34:32 13° 206° (SSW) 2,784 9.9 -37.8°
Maximum altitude 21:38:39 21° 165° (SSE) 1,862 - -38.6°
Drops below altitude 10° 21:42:22 10° 116° (ESE) 2,156 - -39.2°
Sets 21:44:48 0° 98° (E) 2,864 - -39.7°
